Location: Flotzheim
(48.8375°N, 10.8136°E)
Time: 17:13:56
(UTC+00:00)

Cosmos 1844 Rocket - Pass Details

Date: 23 January 2021
Orbit: 825 x 843 km, 71.0° (Epoch: 01 March)

Event Time Altitude Azimuth Distance (km) Brightness Sun altitude
Rises 17:16:46 0° 199° (SSW) 3,388 6.3 -12.5°
Reaches altitude 10° 17:19:12 10° 197° (SSW) 2,456 5.6 -12.9°
Maximum altitude 17:24:48 72° 115° (ESE) 886 2.6 -13.8°
Drops below altitude 10° 17:30:27 10° 32° (NNE) 2,464 4.7 -14.7°
Enters shadow 17:30:30 10° 31° (NNE) 2,483 4.7 -14.7°
